Wind_Speed
35 35 36 35 34 33 33 33 34 34 33 32 33 33 32 32 32 34 34 36 36 37 37 38 38 39 39 41 41 42 43 44 45 45 46 46 46 47 47 48 48 49 50 50
34 35 36 35 35 35 34 34 34 34 32 32 32 33 32 32 32 33 33 35 36 37 38 39 39 40 40 40 40 42 42 43 44 44 45 45 45 46 46 46 47 48 49 50
35 34 36 35 33 34 34 33 33 33 32 32 32 32 31 31 32 32 33 34 35 36 37 38 39 39 39 40 40 40 40 41 42 43 44 44 44 44 44 44 44 45 46 47
35 35 35 34 32 32 33 32 32 33 32 32 32 31 31 31 31 31 32 34 35 35 36 37 38 39 39 40 40 40 41 41 41 42 42 43 44 43 43 43 43 42 43 43
35 35 34 32 31 32 32 30 31 31 30 30 31 31 30 32 32 32 33 34 35 35 35 36 37 37 38 39 39 40 40 40 40 41 43 43 43 42 42 41 41 42 42 42
35 36 34 32 32 32 32 31 31 31 31 31 32 32 30 32 33 33 33 34 34 34 34 35 36 36 37 39 39 39 40 41 40 41 41 42 42 41 40 40 40 40 41 41
35 35 34 33 33 33 32 33 33 32 31 31 32 31 31 33 34 34 34 34 34 34 34 35 35 36 37 38 39 39 40 41 41 40 40 39 39 39 40 40 40 39 40 40
35 35 34 34 33 32 32 32 33 33 33 32 32 31 32 33 34 34 34 33 33 33 34 34 35 36 37 38 38 39 40 40 39 39 38 37 38 38 38 39 39 39 39 40
35 35 35 34 33 33 33 32 32 32 32 32 32 33 33 33 33 34 34 34 34 33 33 34 35 36 36 36 37 38 38 37 37 37 37 37 37 37 37 38 38 38 39 39
34 33 33 33 32 32 32 31 31 31 31 32 32 33 34 34 34 34 34 34 34 34 34 34 34 35 35 36 36 37 36 35 35 36 35 35 37 37 37 37 37 37 36 37
34 32 32 32 32 32 32 32 31 31 32 32 33 33 33 34 34 34 34 34 35 35 34 35 35 35 35 35 35 35 35 35 35 35 35 35 36 36 36 36 36 36 35 35
33 32 33 33 33 33 32 32 32 32 32 33 33 34 34 34 34 33 33 34 35 35 35 34 35 35 35 35 36 35 35 35 34 34 34 35 34 34 34 34 34 34 33 33
32 32 33 33 33 33 32 31 31 31 32 32 33 34 34 34 34 33 33 34 34 35 34 34 34 34 35 35 35 35 35 34 34 34 34 34 33 33 33 32 32 33 33 33
32 33 32 32 32 32 31 31 30 30 31 32 33 34 34 34 34 34 34 34 34 34 34 34 33 33 34 34 34 34 34 34 33 33 33 32 32 32 32 31 31 32 32 33
31 32 32 31 31 31 31 31 30 30 31 32 33 34 34 34 34 34 34 34 34 34 33 33 33 33 33 33 33 33 32 32 32 31 31 31 31 30 31 31 31 31 32 32
31 32 32 32 31 31 32 32 31 31 31 32 32 33 33 33 33 33 33 33 33 33 33 33 33 33 33 33 33 32 31 32 31 30 30 29 29 29 29 30 30 30 31 31
32 32 32 32 32 32 32 32 31 31 31 32 32 32 32 33 33 33 33 33 32 32 32 32 33 33 33 33 32 32 31 31 31 30 29 28 28 28 28 28 29 29 29 30
31 31 32 32 32 32 32 31 31 32 32 32 32 32 33 33 33 33 33 33 32 32 32 32 33 33 33 33 32 32 32 31 30 30 29 28 28 27 27 27 27 28 29 29
31 31 32 32 33 32 32 31 32 32 32 32 32 33 33 33 33 33 33 32 32 32 32 32 32 32 32 32 32 31 31 30 29 28 28 28 28 27 27 27 27 27 28 28
32 32 32 32 32 32 31 31 31 31 32 32 32 32 32 32 32 32 32 32 32 32 32 32 32 32 32 32 31 30 29 28 28 28 27 26 26 26 26 26 26 26 27 27
31 31 31 31 31 31 31 31 31 31 31 31 31 31 32 32 31 32 32 32 32 32 32 31 31 31 30 30 29 29 28 27 27 27 26 25 25 25 25 25 25 26 26 26
31 31 31 30 31 31 31 30 30 30 31 31 31 31 31 32 32 32 32 32 31 31 30 30 29 29 28 28 28 27 27 26 26 25 25 24 24 24 24 24 25 25 25 25
31 31 30 30 30 30 30 30 30 30 30 30 31 31 31 32 31 31 31 31 30 30 29 28 27 27 26 26 26 25 25 25 24 24 24 23 23 23 23 23 23 24 24 25
31 31 31 31 30 30 29 30 30 30 30 31 31 31 31 31 31 31 30 30 29 28 28 27 26 25 25 25 24 24 24 23 23 22 22 22 22 22 22 22 23 23 23 24
32 31 31 30 30 29 29 29 29 29 29 30 30 30 30 30 30 30 29 28 28 27 26 26 25 25 25 25 24 24 23 23 22 22 21 20 20 21 21 22 22 23 23 24
31 30 29 28 28 28 28 28 28 28 28 29 29 29 29 29 29 28 28 27 27 26 25 24 24 24 24 24 24 23 23 22 22 21 21 21 21 20 21 21 21 22 22 23
29 28 28 27 27 27 27 27 28 28 28 28 28 28 28 28 28 27 27 26 26 25 25 25 24 24 24 24 24 24 23 22 22 22 21 21 21 21 21 21 21 21 21 22
Wind_Direction
297 297 295 294 292 294 293 294 295 295 294 294 294 293 291 290 288 286 283 280 279 277 276 276 276 276 277 275 274 273 273 271 271 271 272 273 272 272 272 272 269 267 267 265
297 298 297 295 294 294 293 294 295 295 294 293 294 292 289 289 289 287 286 284 281 279 278 278 278 278 278 277 276 275 275 274 273 273 273 273 274 274 273 272 270 268 267 265
301 301 300 299 299 297 295 295 294 294 294 292 292 291 289 290 290 289 288 288 285 282 280 279 279 280 281 280 278 278 277 276 275 274 273 274 274 273 273 273 272 270 268 265
303 303 301 303 299 299 298 297 294 293 293 292 292 291 290 290 290 289 290 289 289 286 283 281 281 281 281 280 279 279 278 277 277 275 275 275 274 273 274 273 272 270 268 265
303 304 304 304 303 301 301 300 297 294 292 293 293 292 290 290 290 290 291 291 291 289 286 283 282 282 282 282 281 280 280 279 280 278 276 276 275 274 273 273 272 270 269 267
301 302 304 305 304 302 301 300 299 296 294 294 293 292 290 290 290 290 292 292 292 289 288 286 284 283 283 283 282 282 282 281 281 279 278 276 274 274 273 273 271 270 269 266
302 301 301 303 304 303 300 301 299 297 296 296 295 293 292 292 292 292 293 293 292 290 288 287 286 285 285 285 285 285 284 282 281 280 279 277 275 274 273 273 272 270 269 266
303 301 301 302 301 300 298 297 297 297 296 296 295 294 294 294 294 293 294 294 293 291 289 289 289 288 286 287 288 288 286 285 283 281 280 279 276 274 273 273 272 270 268 266
302 302 302 300 299 298 296 295 296 297 297 296 295 296 296 297 296 295 295 295 294 294 292 291 290 290 289 289 290 291 290 287 285 284 282 279 277 275 273 273 273 271 268 265
302 303 301 300 299 298 296 296 296 297 297 297 296 296 297 298 298 297 296 296 295 295 293 292 291 291 290 291 292 292 290 288 286 285 282 280 278 277 276 274 273 272 270 266
299 299 299 299 299 298 298 298 297 296 296 298 297 297 298 298 296 296 295 295 296 296 296 295 293 291 292 292 292 291 290 290 287 285 283 281 279 278 276 275 273 271 269 267
299 298 299 299 299 300 300 298 296 295 296 297 298 299 299 298 298 297 296 295 295 296 296 295 294 293 293 293 293 292 291 291 289 287 284 281 279 276 275 274 272 270 268 267
298 298 299 300 301 301 300 299 297 296 296 296 298 299 300 300 299 299 298 297 296 296 296 296 296 296 295 294 294 293 292 291 289 287 284 282 278 275 273 271 270 268 266 266
298 299 300 301 301 302 301 300 299 298 298 298 300 301 301 301 300 300 298 297 296 296 296 296 297 297 297 297 296 294 293 292 290 288 285 282 278 274 272 270 269 268 267 267
298 300 301 302 301 301 302 301 300 300 300 301 302 302 302 302 302 302 300 299 298 297 297 297 297 297 298 299 299 297 295 293 292 289 286 282 278 274 271 270 269 268 268 267
298 299 301 301 301 301 301 301 300 300 301 302 303 303 303 303 304 304 303 301 300 299 299 298 297 298 298 299 299 298 296 294 293 290 287 283 280 277 273 272 271 269 269 267
299 300 300 301 301 300 300 300 300 301 301 302 303 303 303 304 304 305 304 303 302 301 301 301 300 300 300 300 299 298 296 295 293 291 288 285 281 278 276 274 272 271 269 268
300 301 302 301 300 299 298 299 301 301 301 301 302 303 304 304 304 304 304 303 302 302 303 303 302 302 301 300 300 298 296 295 294 291 287 284 283 280 278 276 274 273 271 269
302 302 303 302 301 299 298 299 300 301 302 302 303 304 304 305 305 305 305 303 302 303 303 303 302 301 301 300 300 299 296 295 294 291 288 285 282 280 279 278 276 274 273 271
303 303 303 302 301 299 299 300 301 302 302 303 304 305 305 306 306 306 306 305 304 303 303 303 302 301 301 301 300 300 298 295 293 292 289 288 285 282 279 279 278 277 274 271
303 303 303 303 302 301 301 302 302 302 303 303 304 305 306 306 307 308 308 307 306 304 304 303 303 303 302 301 300 299 298 296 294 292 290 288 286 283 280 279 278 277 275 272
303 304 304 303 303 302 303 303 303 303 303 304 305 306 307 308 309 309 309 309 307 306 306 306 306 306 304 303 302 299 298 297 296 293 291 289 286 284 282 280 279 278 276 273
304 305 304 304 304 304 304 304 305 305 305 306 307 307 308 309 309 309 310 310 309 309 309 308 308 308 308 307 305 303 300 299 297 295 292 290 288 286 283 281 279 278 276 274
305 304 304 304 304 304 304 305 306 306 306 307 308 309 309 310 310 310 311 311 311 310 310 310 310 310 310 309 308 306 303 302 300 298 295 292 289 287 284 282 280 279 278 276
305 304 303 304 304 303 304 306 306 307 308 309 309 310 310 310 311 312 312 312 312 311 311 311 311 311 311 310 309 307 305 304 301 299 297 295 293 290 288 285 283 282 280 278
304 304 304 304 304 304 305 307 308 309 310 311 311 312 312 312 312 312 312 312 312 312 312 312 311 311 312 311 310 309 307 305 303 301 299 297 295 293 292 290 288 285 283 281
303 304 304 304 304 305 306 307 308 309 310 311 312 313 313 313 313 313 313 313 312 312 312 312 311 311 311 311 311 310 308 306 304 302 301 299 297 295 293 292 291 289 287 285
Height
5587 5584 5580 5577 5575 5572 5568 5565 5563 5561 5557 5555 5551 5548 5545 5542 5541 5539 5538 5536 5534 5533 5531 5530 5529 5527 5526 5525 5524 5523 5522 5522 5522 5522 5521 5521 5521 5520 5520 5519 5519 5519 5520 5521
5579 5576 5571 5568 5567 5563 5560 5557 5554 5551 5550 5547 5543 5539 5537 5534 5532 5531 5529 5527 5525 5523 5521 5520 5518 5516 5515 5514 5512 5512 5511 5509 5509 5509 5508 5508 5507 5506 5506 5506 5505 5505 5505 5506
5570 5567 5563 5561 5559 5555 5552 5549 5546 5543 5542 5538 5535 5532 5529 5527 5524 5522 5520 5518 5515 5513 5511 5509 5507 5506 5504 5502 5501 5500 5499 5497 5496 5496 5495 5494 5494 5493 5492 5492 5491 5491 5492 5492
5561 5559 5555 5556 5550 5547 5544 5541 5538 5535 5532 5530 5527 5524 5521 5519 5516 5514 5511 5508 5506 5503 5501 5499 5497 5496 5494 5492 5490 5488 5487 5486 5484 5483 5482 5481 5480 5480 5479 5479 5478 5478 5478 5479
5553 5549 5547 5546 5542 5538 5535 5534 5530 5527 5524 5522 5519 5517 5515 5511 5508 5505 5502 5499 5496 5494 5491 5489 5487 5485 5483 5481 5479 5477 5476 5474 5472 5471 5470 5468 5467 5467 5466 5466 5465 5465 5466 5466
5546 5541 5539 5539 5534 5530 5527 5525 5523 5519 5516 5513 5510 5509 5507 5503 5500 5497 5494 5491 5487 5485 5482 5479 5477 5475 5473 5471 5469 5466 5464 5462 5460 5458 5457 5456 5455 5454 5453 5453 5453 5453 5453 5454
5539 5534 5532 5530 5526 5522 5520 5519 5514 5511 5508 5505 5502 5500 5498 5494 5491 5488 5485 5482 5478 5475 5473 5470 5467 5465 5463 5460 5458 5456 5453 5450 5448 5446 5445 5444 5443 5442 5441 5441 5441 5441 5442 5442
5531 5527 5527 5522 5518 5515 5512 5508 5505 5502 5500 5497 5494 5491 5488 5485 5482 5479 5476 5473 5469 5466 5463 5461 5458 5455 5453 5450 5448 5445 5442 5439 5437 5435 5433 5432 5431 5430 5429 5429 5429 5429 5429 5430
5525 5523 5518 5513 5510 5506 5503 5500 5497 5495 5492 5489 5486 5483 5480 5477 5473 5470 5467 5464 5461 5458 5455 5451 5448 5445 5443 5440 5437 5434 5431 5428 5426 5424 5422 5420 5420 5419 5418 5418 5417 5417 5417 5418
5516 5514 5510 5506 5502 5498 5495 5492 5489 5486 5484 5481 5478 5475 5471 5468 5464 5461 5458 5455 5452 5449 5446 5442 5439 5436 5433 5429 5426 5423 5420 5418 5415 5413 5411 5410 5408 5408 5407 5406 5406 5406 5406 5406
5509 5506 5502 5498 5494 5491 5488 5484 5481 5478 5476 5472 5469 5466 5462 5459 5456 5452 5449 5446 5443 5439 5436 5433 5430 5426 5423 5420 5417 5413 5410 5407 5405 5403 5401 5399 5398 5397 5396 5395 5395 5395 5395 5395
5501 5498 5494 5491 5487 5484 5480 5477 5473 5470 5467 5464 5461 5457 5454 5450 5447 5443 5440 5437 5433 5430 5427 5423 5420 5417 5413 5410 5407 5403 5400 5397 5395 5392 5390 5389 5387 5387 5385 5385 5384 5384 5384 5385
5493 5490 5486 5483 5479 5476 5472 5469 5465 5462 5459 5456 5452 5449 5445 5441 5438 5434 5431 5428 5424 5421 5417 5414 5411 5407 5404 5400 5397 5393 5390 5387 5385 5382 5380 5378 5377 5376 5376 5376 5375 5374 5374 5374
5485 5481 5478 5475 5472 5468 5464 5461 5458 5454 5451 5448 5444 5441 5437 5433 5429 5426 5422 5419 5415 5411 5408 5405 5401 5398 5394 5391 5387 5383 5380 5377 5375 5372 5370 5368 5367 5366 5366 5366 5366 5365 5365 5365
5477 5473 5470 5467 5464 5460 5457 5453 5450 5447 5443 5440 5436 5432 5428 5425 5421 5417 5413 5410 5406 5402 5399 5395 5392 5389 5385 5381 5377 5374 5371 5368 5365 5363 5360 5359 5358 5357 5356 5356 5356 5356 5356 5356
5469 5465 5462 5459 5456 5453 5449 5446 5442 5439 5435 5432 5428 5424 5420 5416 5412 5408 5405 5401 5397 5393 5390 5386 5383 5379 5376 5372 5368 5365 5362 5359 5356 5353 5351 5349 5348 5347 5346 5346 5346 5346 5346 5346
5461 5458 5454 5451 5448 5445 5441 5438 5434 5431 5427 5424 5420 5416 5412 5408 5404 5400 5396 5392 5388 5385 5381 5377 5373 5370 5366 5363 5359 5356 5353 5350 5347 5344 5342 5340 5339 5338 5337 5337 5336 5336 5336 5336
5452 5449 5446 5443 5440 5436 5433 5430 5426 5422 5419 5415 5411 5408 5404 5400 5396 5392 5388 5384 5380 5376 5372 5368 5364 5360 5357 5353 5350 5347 5344 5341 5338 5336 5333 5332 5330 5329 5328 5328 5327 5327 5327 5327
5444 5441 5438 5434 5431 5428 5425 5421 5418 5414 5410 5407 5403 5399 5395 5392 5388 5384 5380 5375 5372 5368 5364 5360 5356 5352 5348 5344 5341 5337 5334 5332 5329 5327 5325 5323 5322 5321 5320 5320 5319 5318 5318 5318
5437 5433 5429 5426 5423 5419 5416 5413 5409 5406 5402 5399 5395 5391 5387 5383 5379 5375 5371 5367 5363 5358 5354 5350 5347 5343 5339 5335 5332 5328 5325 5323 5321 5318 5316 5315 5313 5312 5312 5311 5311 5310 5310 5309
5429 5425 5422 5418 5415 5411 5408 5405 5401 5398 5394 5391 5387 5383 5379 5375 5371 5367 5362 5358 5354 5350 5345 5341 5337 5333 5329 5326 5323 5320 5317 5314 5312 5310 5308 5306 5305 5304 5303 5303 5302 5302 5302 5301
5421 5417 5414 5410 5407 5404 5400 5397 5394 5390 5387 5383 5379 5375 5371 5367 5363 5359 5354 5350 5345 5341 5337 5333 5329 5325 5321 5318 5314 5311 5309 5306 5304 5302 5300 5298 5297 5296 5295 5295 5295 5294 5294 5293
5413 5409 5406 5403 5399 5396 5393 5389 5386 5383 5379 5375 5371 5367 5363 5359 5355 5351 5347 5342 5337 5333 5329 5325 5321 5317 5313 5310 5307 5304 5301 5299 5296 5294 5292 5290 5289 5288 5288 5287 5287 5286 5286 5285
5405 5401 5398 5395 5392 5388 5385 5382 5379 5375 5372 5368 5364 5359 5355 5351 5347 5343 5339 5334 5330 5326 5322 5318 5314 5310 5307 5303 5300 5297 5294 5292 5289 5287 5285 5283 5282 5281 5280 5280 5279 5278 5278 5277
5396 5393 5390 5387 5384 5381 5378 5375 5371 5368 5364 5360 5356 5352 5348 5344 5340 5335 5331 5327 5323 5319 5315 5311 5307 5304 5301 5297 5294 5291 5288 5285 5283 5281 5279 5277 5276 5274 5273 5272 5272 5271 5270 5269
5388 5385 5382 5379 5376 5373 5370 5367 5364 5361 5357 5353 5349 5345 5341 5337 5333 5329 5324 5320 5316 5313 5309 5305 5302 5298 5295 5291 5288 5285 5282 5279 5277 5275 5273 5271 5269 5268 5267 5265 5264 5263 5262 5261
5381 5378 5375 5372 5369 5366 5363 5360 5357 5353 5350 5346 5342 5338 5334 5330 5326 5322 5318 5314 5310 5306 5303 5299 5296 5292 5289 5286 5282 5279 5276 5274 5271 5269 5267 5265 5263 5261 5260 5259 5257 5256 5255 5254